Location: St. Louis
(38.6270°N, 90.1994°W)
Time: 06:02:16
(UTC-06:00)

Explorer 7 - Pass Details

Date: 13 December 2021
Orbit: 483 x 674 km, 50.3° (Epoch: 19 January)

Event Time Altitude Azimuth Distance (km) Brightness Sun altitude
Exits shadow 06:17:04 10° 323° (NW) 1,899 9.0 -10.2°
Reaches altitude 10° 06:17:09 10° 324° (NW) 1,874 9.0 -10.2°
Maximum altitude 06:20:25 21° 14° (NNE) 1,269 8.6 -9.6°
Drops below altitude 10° 06:23:33 10° 65° (ENE) 1,782 10.1 -9.0°
Sets 06:26:07 0° 82° (E) 2,635 11.4 -8.6°
